KZR345 UBBB-UATE

Flight info

Callsign KZR345
Flight time 0h 40m
Altitude 27000
Route EKRAM Y125 SITON N60 GASBI/K0752F270 GASBI1J
Aircraft A20N/M-SDE2E3FGHIRWXY/LB1

Departure

Time 2026-05-05 18:34
Airport Heydar Aliyev International Airport (UBBB)

Arrival

Time 2026-05-05 19:14
Airport Aktau International Airport (UATE)
Time Latitude Longitude Altitude Speed Heading
2026-05-05 17:55 40.46745 50.05295 8 ft 0 kts 230°
2026-05-05 17:59 40.46746 50.05295 8 ft 0 kts 230°
2026-05-05 18:20 40.46749 50.05300 9 ft 2 kts 227°
2026-05-05 18:21 40.46760 50.05316 9 ft 2 kts 229°
2026-05-05 18:21 40.46771 50.05333 10 ft 2 kts 229°
2026-05-05 18:21 40.46781 50.05350 10 ft 2 kts 229°
2026-05-05 18:21 40.46792 50.05366 11 ft 2 kts 229°
2026-05-05 18:22 40.46803 50.05382 10 ft 2 kts 201°
2026-05-05 18:22 40.46820 50.05385 11 ft 2 kts 176°
2026-05-05 18:22 40.46836 50.05383 8 ft 2 kts 174°
2026-05-05 18:22 40.46844 50.05382 8 ft 1 kts 177°
2026-05-05 18:26 40.46827 50.05383 8 ft 4 kts 177°
2026-05-05 18:26 40.46785 50.05396 8 ft 8 kts 156°
2026-05-05 18:26 40.46723 50.05437 8 ft 12 kts 155°
2026-05-05 18:27 40.46640 50.05498 8 ft 15 kts 146°
2026-05-05 18:27 40.46551 50.05578 8 ft 8 kts 147°
2026-05-05 18:27 40.46510 50.05644 8 ft 11 kts 87°
2026-05-05 18:27 40.46525 50.05709 8 ft 7 kts 97°
2026-05-05 18:28 40.46523 50.05902 8 ft 14 kts 89°
2026-05-05 18:28 40.46491 50.05961 8 ft 5 kts 197°
2026-05-05 18:28 40.46448 50.05957 8 ft 8 kts 177°
2026-05-05 18:29 40.46381 50.05958 8 ft 12 kts 180°
2026-05-05 18:29 40.46287 50.05958 8 ft 15 kts 180°
2026-05-05 18:29 40.46180 50.05958 8 ft 8 kts 180°
2026-05-05 18:29 40.46159 50.05962 10 ft 4 kts 160°
2026-05-05 18:30 40.46135 50.05996 8 ft 6 kts 114°
2026-05-05 18:30 40.46133 50.06070 8 ft 9 kts 78°
2026-05-05 18:30 40.46181 50.06139 8 ft 11 kts 35°
2026-05-05 18:30 40.46210 50.06163 8 ft 1 kts 31°
2026-05-05 18:31 40.46222 50.06172 8 ft 0 kts 31°
2026-05-05 18:31 40.46226 50.06176 8 ft 2 kts 31°
2026-05-05 18:31 40.46248 50.06193 8 ft 5 kts 31°
2026-05-05 18:31 40.46272 50.06234 9 ft 7 kts 90°
2026-05-05 18:32 40.46279 50.06311 10 ft 10 kts 61°
2026-05-05 18:32 40.46291 50.06315 8 ft 2 kts 345°
2026-05-05 18:32 40.46302 50.06315 8 ft 0 kts 358°
2026-05-05 18:32 40.46303 50.06315 8 ft 0 kts 358°
2026-05-05 18:33 40.46305 50.06315 8 ft 0 kts 358°
2026-05-05 18:33 40.46346 50.06313 9 ft 30 kts 358°
2026-05-05 18:33 40.46806 50.06302 9 ft 99 kts 359°
2026-05-05 18:33 40.47683 50.06287 11 ft 150 kts 359°
2026-05-05 18:34 40.48725 50.06264 603 ft 147 kts 358°
2026-05-05 18:34 40.49737 50.06146 1373 ft 142 kts 350°
2026-05-05 18:34 40.50686 50.05908 2162 ft 139 kts 349°
2026-05-05 18:34 40.51635 50.05619 2846 ft 142 kts 348°
2026-05-05 18:35 40.52634 50.05329 3447 ft 155 kts 350°
2026-05-05 18:35 40.53781 50.05053 3971 ft 179 kts 350°
2026-05-05 18:35 40.55100 50.04749 4450 ft 205 kts 349°
2026-05-05 18:35 40.56599 50.04412 4885 ft 234 kts 349°
2026-05-05 18:36 40.58290 50.04028 5397 ft 259 kts 349°
2026-05-05 18:36 40.60155 50.03605 5939 ft 282 kts 349°
2026-05-05 18:36 40.62119 50.03259 6721 ft 293 kts 356°
2026-05-05 18:36 40.64163 50.03195 7664 ft 296 kts 357°
2026-05-05 18:37 40.66239 50.03121 8609 ft 301 kts 356°
2026-05-05 18:37 40.68353 50.03038 9553 ft 306 kts 356°
2026-05-05 18:37 40.70496 50.02951 10390 ft 314 kts 356°
2026-05-05 18:37 40.72765 50.02858 10771 ft 338 kts 355°
2026-05-05 18:38 40.75196 50.02757 11121 ft 359 kts 356°
2026-05-05 18:38 40.77726 50.02659 11864 ft 366 kts 355°
2026-05-05 18:38 40.80288 50.02563 12701 ft 371 kts 355°
2026-05-05 18:38 40.82891 50.02465 13528 ft 376 kts 354°
2026-05-05 18:39 40.85529 50.02363 14274 ft 382 kts 354°
2026-05-05 18:39 40.88171 50.02260 14950 ft 388 kts 354°
2026-05-05 18:39 40.90890 50.02153 15641 ft 394 kts 353°
2026-05-05 18:39 40.93653 50.02044 16337 ft 399 kts 353°
2026-05-05 18:40 40.96445 50.01934 17009 ft 405 kts 353°
2026-05-05 18:40 40.99283 50.01822 17687 ft 411 kts 353°
2026-05-05 18:40 41.02127 50.01710 18337 ft 416 kts 352°
2026-05-05 18:40 41.05069 50.01593 18935 ft 421 kts 352°
2026-05-05 18:41 41.08008 50.01477 19531 ft 425 kts 352°
2026-05-05 18:41 41.10982 50.01376 20112 ft 432 kts 355°
2026-05-05 18:41 41.14009 50.01696 20684 ft 442 kts
2026-05-05 18:41 41.17046 50.02634 21250 ft 452 kts 14°
2026-05-05 18:42 41.20044 50.03984 21812 ft 457 kts 15°
2026-05-05 18:42 41.23079 50.05343 22377 ft 462 kts 15°
2026-05-05 18:42 41.26144 50.06706 22925 ft 467 kts 15°
2026-05-05 18:42 41.29242 50.08083 23472 ft 472 kts 15°
2026-05-05 18:43 41.32366 50.09475 23961 ft 475 kts 15°
2026-05-05 18:43 41.35511 50.10878 24481 ft 478 kts 15°
2026-05-05 18:43 41.38632 50.12272 24961 ft 480 kts 15°
2026-05-05 18:43 41.41852 50.13709 25439 ft 484 kts 16°
2026-05-05 18:44 41.45057 50.15141 25903 ft 487 kts 16°
2026-05-05 18:44 41.48242 50.16567 26359 ft 490 kts 16°
2026-05-05 18:44 41.51479 50.18017 26794 ft 493 kts 16°
2026-05-05 18:44 41.54742 50.19481 26969 ft 495 kts 16°
2026-05-05 18:45 41.58003 50.20947 26993 ft 495 kts 16°
2026-05-05 18:45 41.61264 50.22415 26993 ft 494 kts 16°
2026-05-05 18:45 41.64532 50.23887 26993 ft 495 kts 16°
2026-05-05 18:45 41.67790 50.25356 26993 ft 495 kts 16°
2026-05-05 18:46 41.71064 50.26834 26990 ft 495 kts 16°
2026-05-05 18:46 41.74329 50.28309 26990 ft 495 kts 16°
2026-05-05 18:46 41.77596 50.29787 26986 ft 495 kts 16°
2026-05-05 18:46 41.80813 50.31243 26989 ft 495 kts 16°
2026-05-05 18:47 41.84081 50.32725 26987 ft 495 kts 16°
2026-05-05 18:47 41.87340 50.34204 26988 ft 495 kts 16°
2026-05-05 18:47 41.90611 50.35690 26988 ft 495 kts 16°
2026-05-05 18:47 41.93877 50.37171 26988 ft 494 kts 15°
2026-05-05 18:48 41.97200 50.38285 26987 ft 490 kts
2026-05-05 18:48 42.00575 50.38916 26985 ft 489 kts
2026-05-05 18:48 42.03954 50.39537 26986 ft 489 kts
2026-05-05 18:48 42.07282 50.40159 26984 ft 489 kts
2026-05-05 18:49 42.10701 50.40800 26985 ft 489 kts
2026-05-05 18:49 42.14020 50.41422 26984 ft 489 kts
2026-05-05 18:49 42.17393 50.42053 26984 ft 489 kts
2026-05-05 18:49 42.20766 50.42683 26982 ft 489 kts
2026-05-05 18:50 42.24146 50.43315 26983 ft 489 kts
2026-05-05 18:50 42.27525 50.43947 26982 ft 490 kts
2026-05-05 18:50 42.30900 50.44579 26982 ft 490 kts
2026-05-05 18:50 42.34278 50.45213 26981 ft 490 kts
2026-05-05 18:51 42.37655 50.45846 26981 ft 490 kts
2026-05-05 18:51 42.41026 50.46581 26980 ft 493 kts
2026-05-05 18:51 42.44322 50.47965 26980 ft 498 kts 20°
2026-05-05 18:51 42.47438 50.50053 26982 ft 500 kts 30°
2026-05-05 18:52 42.50411 50.52493 26977 ft 500 kts 30°
2026-05-05 18:52 42.53393 50.54922 26979 ft 500 kts 30°
2026-05-05 18:52 42.56345 50.57323 26870 ft 500 kts 30°
2026-05-05 18:52 42.59325 50.59750 26624 ft 499 kts 30°
2026-05-05 18:53 42.62302 50.62181 26339 ft 496 kts 30°
2026-05-05 18:53 42.65262 50.64603 25798 ft 497 kts 30°
2026-05-05 18:53 42.68222 50.67028 25195 ft 495 kts 30°
2026-05-05 18:53 42.71159 50.69439 24577 ft 492 kts 30°
2026-05-05 18:54 42.74057 50.71820 24031 ft 488 kts 29°
2026-05-05 18:54 42.76958 50.74206 23394 ft 486 kts 29°
2026-05-05 18:54 42.79843 50.76581 22768 ft 481 kts 29°
2026-05-05 18:54 42.82695 50.78931 22175 ft 476 kts 29°
2026-05-05 18:55 42.85526 50.81267 21564 ft 472 kts 29°
2026-05-05 18:55 42.88327 50.83581 20958 ft 467 kts 29°
2026-05-05 18:55 42.91100 50.85873 20337 ft 463 kts 29°
2026-05-05 18:55 42.93813 50.88118 19727 ft 459 kts 29°
2026-05-05 18:56 42.96532 50.90371 19111 ft 456 kts 29°
2026-05-05 18:56 42.99228 50.92607 18549 ft 451 kts 29°
2026-05-05 18:56 43.01892 50.94819 17981 ft 444 kts 29°
2026-05-05 18:56 43.04519 50.97002 17366 ft 439 kts 29°
2026-05-05 18:57 43.07113 50.99159 16773 ft 433 kts 29°
2026-05-05 18:57 43.09668 51.01285 16182 ft 427 kts 30°
2026-05-05 18:57 43.12197 51.03393 15616 ft 422 kts 30°
2026-05-05 18:57 43.14691 51.05473 15052 ft 416 kts 30°
2026-05-05 18:58 43.17155 51.07530 14499 ft 411 kts 30°
2026-05-05 18:58 43.19581 51.09558 13975 ft 406 kts 30°
2026-05-05 18:58 43.21972 51.11557 13402 ft 401 kts 30°
2026-05-05 18:58 43.24350 51.13550 12784 ft 397 kts 30°
2026-05-05 18:59 43.26692 51.15513 12189 ft 393 kts 30°
2026-05-05 18:59 43.29015 51.17464 11614 ft 389 kts 30°
2026-05-05 18:59 43.31281 51.19367 11041 ft 385 kts 30°
2026-05-05 18:59 43.33560 51.21283 10594 ft 378 kts 30°
2026-05-05 19:00 43.35742 51.23121 10367 ft 357 kts 30°
2026-05-05 19:00 43.37799 51.24856 10162 ft 337 kts 30°
2026-05-05 19:00 43.39741 51.26496 9943 ft 320 kts 29°
2026-05-05 19:00 43.41604 51.28067 9560 ft 309 kts 29°
2026-05-05 19:01 43.43380 51.29567 9388 ft 291 kts 29°
2026-05-05 19:01 43.45054 51.30982 9233 ft 274 kts 29°
2026-05-05 19:01 43.46631 51.32315 9026 ft 261 kts 28°
2026-05-05 19:01 43.48169 51.33614 8590 ft 257 kts 28°
2026-05-05 19:02 43.49685 51.34894 8230 ft 251 kts 28°
2026-05-05 19:02 43.51126 51.36115 8075 ft 236 kts 28°
2026-05-05 19:02 43.52034 51.36885 7910 ft 229 kts 28°
2026-05-05 19:02 43.53320 51.37981 7802 ft 204 kts 28°
2026-05-05 19:03 43.54477 51.38967 7523 ft 190 kts 27°
2026-05-05 19:03 43.55611 51.39925 7030 ft 192 kts 27°
2026-05-05 19:03 43.57114 51.41192 6425 ft 190 kts 27°
2026-05-05 19:03 43.58238 51.42144 5961 ft 188 kts 27°
2026-05-05 19:04 43.59335 51.43076 5661 ft 184 kts 26°
2026-05-05 19:04 43.60077 51.43704 5492 ft 190 kts 26°
2026-05-05 19:04 43.61247 51.44425 5255 ft 180 kts
2026-05-05 19:04 43.62463 51.44432 5013 ft 171 kts 341°
2026-05-05 19:05 43.63528 51.43821 4779 ft 162 kts 319°
2026-05-05 19:05 43.64370 51.42915 4654 ft 146 kts 315°
2026-05-05 19:05 43.65164 51.42079 4366 ft 141 kts 316°
2026-05-05 19:05 43.65944 51.41269 4177 ft 143 kts 316°
2026-05-05 19:06 43.66735 51.40445 3970 ft 141 kts 316°
2026-05-05 19:06 43.67508 51.39642 3784 ft 140 kts 316°
2026-05-05 19:06 43.68292 51.38827 3587 ft 139 kts 317°
2026-05-05 19:06 43.69054 51.38032 3422 ft 137 kts 317°
2026-05-05 19:07 43.69811 51.37242 3406 ft 138 kts 317°
2026-05-05 19:07 43.70606 51.36403 3415 ft 154 kts 317°
2026-05-05 19:07 43.71467 51.35503 3322 ft 154 kts 318°
2026-05-05 19:07 43.72315 51.34634 3015 ft 151 kts 318°
2026-05-05 19:08 43.73156 51.33762 2771 ft 152 kts 318°
2026-05-05 19:08 43.74005 51.32873 2570 ft 153 kts 318°
2026-05-05 19:08 43.74850 51.31984 2374 ft 152 kts 318°
2026-05-05 19:08 43.75640 51.31021 2176 ft 151 kts 309°
2026-05-05 19:09 43.76306 51.29905 1977 ft 150 kts 303°
2026-05-05 19:09 43.76888 51.28735 1812 ft 149 kts 300°
2026-05-05 19:09 43.77445 51.27544 1802 ft 148 kts 299°
2026-05-05 19:09 43.77971 51.26419 1795 ft 126 kts 299°
2026-05-05 19:10 43.78431 51.25428 1798 ft 121 kts 299°
2026-05-05 19:10 43.78884 51.24448 1805 ft 120 kts 299°
2026-05-05 19:10 43.79335 51.23475 1804 ft 120 kts 299°
2026-05-05 19:10 43.79786 51.22501 1803 ft 120 kts 299°
2026-05-05 19:11 43.80241 51.21521 1798 ft 120 kts 300°
2026-05-05 19:11 43.80694 51.20542 1764 ft 124 kts 299°
2026-05-05 19:11 43.81165 51.19533 1660 ft 125 kts 300°
2026-05-05 19:11 43.81646 51.18527 1456 ft 123 kts 300°
2026-05-05 19:12 43.82109 51.17536 1266 ft 121 kts 299°
2026-05-05 19:12 43.82557 51.16544 1113 ft 123 kts 298°
2026-05-05 19:12 43.83010 51.15523 939 ft 125 kts 299°
2026-05-05 19:12 43.83481 51.14519 788 ft 126 kts 299°
2026-05-05 19:13 43.83961 51.13496 567 ft 128 kts 300°
2026-05-05 19:13 43.84434 51.12451 401 ft 130 kts 301°
2026-05-05 19:13 43.84944 51.11389 252 ft 131 kts 302°
2026-05-05 19:13 43.85424 51.10350 88 ft 123 kts 301°
2026-05-05 19:14 43.85817 51.09492 67 ft 81 kts 302°
2026-05-05 19:14 43.86016 51.09067 71 ft 24 kts 303°
2026-05-05 19:14 43.86078 51.08935 66 ft 17 kts 303°
2026-05-05 19:14 43.86144 51.08798 69 ft 14 kts 304°
2026-05-05 19:15 43.86155 51.08742 74 ft 0 kts 270°
2026-05-05 19:15 43.86156 51.08741 74 ft 0 kts 289°
2026-05-05 19:15 43.86163 51.08743 66 ft 1 kts 11°
2026-05-05 19:15 43.86155 51.08769 73 ft 8 kts 118°
2026-05-05 19:16 43.86110 51.08868 71 ft 15 kts 124°
2026-05-05 19:16 43.86054 51.08986 72 ft 0 kts 123°
2026-05-05 19:16 43.86048 51.09000 71 ft 3 kts 123°
2026-05-05 19:16 43.86028 51.09042 72 ft 7 kts 122°
2026-05-05 19:17 43.85997 51.09059 70 ft 6 kts 182°
2026-05-05 19:17 43.85949 51.09027 73 ft 10 kts 212°
2026-05-05 19:17 43.85884 51.08969 73 ft 13 kts 212°
2026-05-05 19:17 43.85815 51.08908 73 ft 12 kts 212°
2026-05-05 19:18 43.85761 51.08898 70 ft 8 kts 141°
2026-05-05 19:18 43.85719 51.08922 70 ft 6 kts 208°
2026-05-05 19:18 43.85679 51.08890 73 ft 0 kts 213°
2026-05-05 19:18 43.85674 51.08886 73 ft 0 kts 213°